Showing default

SIGI, 62632

Orbit data source: Space-Track

SIGI, 62632 is a German payload satellite in SSO that was launched on Tue, 14 Jan 2025 UTC via an FALCON 9 launch vehicle from the Air Force Western Test Range (AFWTR). Payload-class satellites include a variety of spacecraft equipped with specific instruments for various scientific and technological missions. These include communications satellites like Starlink; space stations such as the ISS; scientific satellites like the Hubble; Earth observation satellites from companies like Planet Labs, Umbra, and HawkEye 360; GPS; miniature CubeSats for education and research; and military/defense satellites.

Loading next visibility...
Identifier
62632, 2025-009Z
Orbit
SSO
Country
Flag of DEDE / GER
Related business
Manufacturer
REFLEX
Mission
Operational Commercial Communications
Bus & Motor
OMNIFLEX, Unknown motor
Mass
109 kg wet, 109 kg dry
Launch date (UTC)
2025-01-14 (1 year ago)
Launch vehicle
FALCON 9
Launch site
Air Force Western Test Range (AFWTR)
Object type
Payload
Rocket body
Debris
Shape & HBR
Box + 2 Pan, 1.0 m
Radar Cross Section
1.176 m², Medium (>0.1 m² and < 1m²)

Expand to show TLE details & history
Last TLE update: 9 hours ago

TLE from 9 hours ago
0 SIGI
1 62632U 25009Z   26122.37620911  .00006678  00000-0  27752-3 0  9990
2 62632  97.4011 203.1350 0004890 108.3215 251.8555 15.24123385 71821
Epoch: 2026-05-02T09:01Z
TLE epoch observation values (Epoch: 2026-05-02T09:01:44.467Z)
Latitude
0.00003°
Longitude
-152.59528°
Altitude
497.563 km
Speed
7.615 km/s
True Right ascension
13h 32m 32s
True Declination
0° 00' 00"
Sunlit
Object was in full shadow at epoch
Visualization orbit readout
Latitude
Unknown
Longitude
Unknown
Altitude
Unknown
Speed
Unknown
Apparent Right ascension
Unknown
Apparent Declination
Unknown
Sunlit
N/A
Visualization observer readout
Local Sidereal Time
01:39:20
Azimuth
Unknown
Elevation
Unknown
Doppler factor
Unknown
Orbital elements
Apogee altitude
493.738 km
Perigee altitude
487.02 km
Semi-major axis
6,868.516 km
Eccentricity
0.00049
Inclination
97.4011°
RAAN
203.135°
Arg. of periapsis
108.3215°
True anomaly
251.80226°
Mean anomaly
251.8555°
Eccentric anomaly
251.82888°
Mean motion
3.81284 °/min
Orbital period
94.42 mins
BSTAR
0.00027752
Loading maneuver chart data...
Computing Atmospheric mass density...
Loading historical data...
Loading historical data...
Loading historical data...
Loading historical data...
Loading historical data...
Loading historical data...
Loading historical data...

Documentation

Showing up to 5 results
|